owner,sensor,date,latitude,longitude,vertical_datum,sea_water_practical_salinity,qcFlag 
SCCF RECON,ioos:station:SCCF:53:1,2009-02-01T00:00:00Z,26.6493,-81.8810,1.86,11.39,1111122 
SCCF RECON,ioos:station:SCCF:53:1,2009-02-01T01:00:00Z,26.6493,-81.8810,1.89,11.43,1111122 
SCCF RECON,ioos:station:SCCF:53:1,2009-02-01T02:00:00Z,26.6493,-81.8810,1.89,11.56,1111122 
SCCF RECON,ioos:station:SCCF:53:1,2009-02-01T03:00:00Z,26.6493,-81.8810,1.86,11.21,1111122 
SCCF RECON,ioos:station:SCCF:53:1,2009-02-01T04:00:00Z,26.6493,-81.8810,1.83,10.32,1111122 
SCCF RECON,ioos:station:SCCF:53:1,2009-02-01T05:00:00Z,26.6493,-81.8810,1.79,10.11,1111122 
SCCF RECON,ioos:station:SCCF:53:1,2009-02-01T06:00:00Z,26.6493,-81.8810,1.76,10.86,1111122 
SCCF RECON,ioos:station:SCCF:53:1,2009-02-01T07:00:00Z,26.6493,-81.8810,1.75,11.39,1111122 
SCCF RECON,ioos:station:SCCF:53:1,2009-02-01T08:00:00Z,26.6493,-81.8810,1.78,11.3,1111122 
SCCF RECON,ioos:station:SCCF:53:1,2009-02-01T09:00:00Z,26.6493,-81.8810,1.81,11.62,1111122 
SCCF RECON,ioos:station:SCCF:53:1,2009-02-01T10:00:00Z,26.6493,-81.8810,1.84,11.74,1111122 
SCCF RECON,ioos:station:SCCF:53:1,2009-02-01T11:00:00Z,26.6493,-81.8810,1.88,12.49,1111122 
SCCF RECON,ioos:station:SCCF:53:1,2009-02-01T12:00:00Z,26.6493,-81.8810,1.912,11.96,1111122 
SCCF RECON,ioos:station:SCCF:53:1,2009-02-01T13:00:00Z,26.6493,-81.8810,1.927,12.04,1111122 
SCCF RECON,ioos:station:SCCF:53:1,2009-02-01T14:00:00Z,26.6493,-81.8810,1.91,12.1,1111122 
SCCF RECON,ioos:station:SCCF:53:1,2009-02-01T15:00:00Z,26.6493,-81.8810,1.88,11.25,1111122 
SCCF RECON,ioos:station:SCCF:53:1,2009-02-01T16:00:00Z,26.6493,-81.8810,1.849,11.07,1111122 
SCCF RECON,ioos:station:SCCF:53:1,2009-02-01T17:00:00Z,26.6493,-81.8810,1.81,11.19,1111122 
SCCF RECON,ioos:station:SCCF:53:1,2009-02-01T18:00:00Z,26.6493,-81.8810,1.797,10.96,1111122 
SCCF RECON,ioos:station:SCCF:53:1,2009-02-01T19:00:00Z,26.6493,-81.8810,1.831,11.18,1111122 
SCCF RECON,ioos:station:SCCF:53:1,2009-02-01T20:00:00Z,26.6493,-81.8810,1.875,11.59,1111122 
SCCF RECON,ioos:station:SCCF:53:1,2009-02-01T21:00:00Z,26.6493,-81.8810,1.92,11.93,1111122 
SCCF RECON,ioos:station:SCCF:53:1,2009-02-01T22:00:00Z,26.6493,-81.8810,1.98,12.39,1111122 
SCCF RECON,ioos:station:SCCF:53:1,2009-02-01T23:00:00Z,26.6493,-81.8810,2.031,13.11,1111122 
SCCF RECON,ioos:station:SCCF:53:1,2009-02-02T00:00:00Z,26.6493,-81.8810,2.09,13.36,1111122 
SCCF RECON,ioos:station:SCCF:53:1,2009-02-02T01:00:00Z,26.6493,-81.8810,2.12,13.47,1111122 
SCCF RECON,ioos:station:SCCF:53:1,2009-02-02T02:00:00Z,26.6493,-81.8810,2.11,13.78,1111122 
SCCF RECON,ioos:station:SCCF:53:1,2009-02-02T03:00:00Z,26.6493,-81.8810,2.07,13.59,1111122 
SCCF RECON,ioos:station:SCCF:53:1,2009-02-02T04:00:00Z,26.6493,-81.8810,2.02,13.22,1111122 
SCCF RECON,ioos:station:SCCF:53:1,2009-02-02T05:00:00Z,26.6493,-81.8810,1.97,13.78,1111122 
SCCF RECON,ioos:station:SCCF:53:1,2009-02-02T06:00:00Z,26.6493,-81.8810,1.92,13.79,1111122 
SCCF RECON,ioos:station:SCCF:53:1,2009-02-02T07:00:00Z,26.6493,-81.8810,1.88,13.82,1111122 
SCCF RECON,ioos:station:SCCF:53:1,2009-02-02T08:00:00Z,26.6493,-81.8810,1.86,13.75,1111122 
SCCF RECON,ioos:station:SCCF:53:1,2009-02-02T09:00:00Z,26.6493,-81.8810,1.85,13.82,1111122 
SCCF RECON,ioos:station:SCCF:53:1,2009-02-02T10:00:00Z,26.6493,-81.8810,1.88,13.25,1111122 
SCCF RECON,ioos:station:SCCF:53:1,2009-02-02T11:00:00Z,26.6493,-81.8810,1.92,13.29,1111122 
SCCF RECON,ioos:station:SCCF:53:1,2009-02-02T12:00:00Z,26.6493,-81.8810,1.96,13.21,1111122 
SCCF RECON,ioos:station:SCCF:53:1,2009-02-02T13:00:00Z,26.6493,-81.8810,2.002,13.4,1111122 
SCCF RECON,ioos:station:SCCF:53:1,2009-02-02T14:00:00Z,26.6493,-81.8810,2.04,13.55,1111122 
SCCF RECON,ioos:station:SCCF:53:1,2009-02-02T15:00:00Z,26.6493,-81.8810,2.04,13.47,1111122 
SCCF RECON,ioos:station:SCCF:53:1,2009-02-02T16:00:00Z,26.6493,-81.8810,2.021,13.54,1111122 
SCCF RECON,ioos:station:SCCF:53:1,2009-02-02T17:00:00Z,26.6493,-81.8810,1.99,13.39,1111122 
SCCF RECON,ioos:station:SCCF:53:1,2009-02-02T18:00:00Z,26.6493,-81.8810,1.99,13.16,1111122 
SCCF RECON,ioos:station:SCCF:53:1,2009-02-02T19:00:00Z,26.6493,-81.8810,2.029,13.12,1111122 
SCCF RECON,ioos:station:SCCF:53:1,2009-02-02T20:00:00Z,26.6493,-81.8810,2.067,13.41,1111122 
SCCF RECON,ioos:station:SCCF:53:1,2009-02-02T21:00:00Z,26.6493,-81.8810,2.124,13.11,1111122 
SCCF RECON,ioos:station:SCCF:53:1,2009-02-02T22:00:00Z,26.6493,-81.8810,2.203,13.48,1111122 
SCCF RECON,ioos:station:SCCF:53:1,2009-02-02T23:00:00Z,26.6493,-81.8810,2.274,13.42,1111122 
SCCF RECON,ioos:station:SCCF:53:1,2009-02-03T00:00:00Z,26.6493,-81.8810,2.315,14.4,1111122 
SCCF RECON,ioos:station:SCCF:53:1,2009-02-03T01:00:00Z,26.6493,-81.8810,2.37,14.62,1111122 
SCCF RECON,ioos:station:SCCF:53:1,2009-02-03T02:00:00Z,26.6493,-81.8810,2.381,14.88,1111122 
SCCF RECON,ioos:station:SCCF:53:1,2009-02-03T03:00:00Z,26.6493,-81.8810,2.347,14.32,1111122 
SCCF RECON,ioos:station:SCCF:53:1,2009-02-03T04:00:00Z,26.6493,-81.8810,2.3,13.69,1111122 
SCCF RECON,ioos:station:SCCF:53:1,2009-02-03T05:00:00Z,26.6493,-81.8810,2.248,12.8,1111122 
SCCF RECON,ioos:station:SCCF:53:1,2009-02-03T06:00:00Z,26.6493,-81.8810,2.19,12.54,1111122 
SCCF RECON,ioos:station:SCCF:53:1,2009-02-03T07:00:00Z,26.6493,-81.8810,2.14,12.18,1111122 
SCCF RECON,ioos:station:SCCF:53:1,2009-02-03T08:00:00Z,26.6493,-81.8810,2.09,11.99,1111122 
SCCF RECON,ioos:station:SCCF:53:1,2009-02-03T09:00:00Z,26.6493,-81.8810,2.03,12.18,1111122 
SCCF RECON,ioos:station:SCCF:53:1,2009-02-03T10:00:00Z,26.6493,-81.8810,2.0,12.6,1111122 
SCCF RECON,ioos:station:SCCF:53:1,2009-02-03T11:00:00Z,26.6493,-81.8810,1.97,13.52,1111122 
SCCF RECON,ioos:station:SCCF:53:1,2009-02-03T12:00:00Z,26.6493,-81.8810,1.99,13.58,1111122 
SCCF RECON,ioos:station:SCCF:53:1,2009-02-03T13:00:00Z,26.6493,-81.8810,2.03,13.97,1111122 
SCCF RECON,ioos:station:SCCF:53:1,2009-02-03T14:00:00Z,26.6493,-81.8810,2.058,13.52,1111122 
SCCF RECON,ioos:station:SCCF:53:1,2009-02-03T15:00:00Z,26.6493,-81.8810,2.06,13.22,1111122 
SCCF RECON,ioos:station:SCCF:53:1,2009-02-03T16:00:00Z,26.6493,-81.8810,2.02,13.18,1111122 
SCCF RECON,ioos:station:SCCF:53:1,2009-02-03T17:00:00Z,26.6493,-81.8810,1.998,15.08,1111122 
SCCF RECON,ioos:station:SCCF:53:1,2009-02-03T18:00:00Z,26.6493,-81.8810,1.97,13.62,1111122 
SCCF RECON,ioos:station:SCCF:53:1,2009-02-03T19:00:00Z,26.6493,-81.8810,1.946,13.54,1111122 
SCCF RECON,ioos:station:SCCF:53:1,2009-02-03T20:00:00Z,26.6493,-81.8810,1.952,13.32,1111122 
SCCF RECON,ioos:station:SCCF:53:1,2009-02-03T21:00:00Z,26.6493,-81.8810,1.973,13.91,1111122 
SCCF RECON,ioos:station:SCCF:53:1,2009-02-03T22:00:00Z,26.6493,-81.8810,2.007,15.73,1111122 
SCCF RECON,ioos:station:SCCF:53:1,2009-02-03T23:00:00Z,26.6493,-81.8810,2.053,14.1,1111122 
SCCF RECON,ioos:station:SCCF:53:1,2009-02-04T00:00:00Z,26.6493,-81.8810,2.09,16.84,1111122 
SCCF RECON,ioos:station:SCCF:53:1,2009-02-04T01:00:00Z,26.6493,-81.8810,2.12,13.75,1111122 
SCCF RECON,ioos:station:SCCF:53:1,2009-02-04T02:00:00Z,26.6493,-81.8810,2.13,13.42,1111122 
SCCF RECON,ioos:station:SCCF:53:1,2009-02-04T03:00:00Z,26.6493,-81.8810,2.14,14.3,1111122 
SCCF RECON,ioos:station:SCCF:53:1,2009-02-04T04:00:00Z,26.6493,-81.8810,2.11,15.65,1111122 
SCCF RECON,ioos:station:SCCF:53:1,2009-02-04T05:00:00Z,26.6493,-81.8810,2.07,15.41,1111122 
SCCF RECON,ioos:station:SCCF:53:1,2009-02-04T06:00:00Z,26.6493,-81.8810,2.03,15.09,1111122 
SCCF RECON,ioos:station:SCCF:53:1,2009-02-04T07:00:00Z,26.6493,-81.8810,1.98,15.3,1111122 
SCCF RECON,ioos:station:SCCF:53:1,2009-02-04T08:00:00Z,26.6493,-81.8810,1.94,15.29,1111122 
SCCF RECON,ioos:station:SCCF:53:1,2009-02-04T09:00:00Z,26.6493,-81.8810,1.9,15.13,1111122 
SCCF RECON,ioos:station:SCCF:53:1,2009-02-04T10:00:00Z,26.6493,-81.8810,1.86,15.11,1111122 
SCCF RECON,ioos:station:SCCF:53:1,2009-02-04T11:00:00Z,26.6493,-81.8810,1.831,15.15,1111122 
SCCF RECON,ioos:station:SCCF:53:1,2009-02-04T12:00:00Z,26.6493,-81.8810,1.83,15.24,1111122 
SCCF RECON,ioos:station:SCCF:53:1,2009-02-04T13:00:00Z,26.6493,-81.8810,1.872,14.95,1111122 
SCCF RECON,ioos:station:SCCF:53:1,2009-02-04T14:00:00Z,26.6493,-81.8810,1.92,14.46,1111122 
SCCF RECON,ioos:station:SCCF:53:1,2009-02-04T15:00:00Z,26.6493,-81.8810,1.961,13.48,1111122 
SCCF RECON,ioos:station:SCCF:53:1,2009-02-04T16:00:00Z,26.6493,-81.8810,2.0,13.71,1111122 
SCCF RECON,ioos:station:SCCF:53:1,2009-02-04T17:00:00Z,26.6493,-81.8810,2.01,12.24,1111122 
SCCF RECON,ioos:station:SCCF:53:1,2009-02-04T18:00:00Z,26.6493,-81.8810,1.999,12.43,1111122 
SCCF RECON,ioos:station:SCCF:53:1,2009-02-04T19:00:00Z,26.6493,-81.8810,1.991,13.29,1111122 
SCCF RECON,ioos:station:SCCF:53:1,2009-02-04T20:00:00Z,26.6493,-81.8810,2.01,12.34,1111122 
SCCF RECON,ioos:station:SCCF:53:1,2009-02-04T21:00:00Z,26.6493,-81.8810,2.039,13.44,1111122 
SCCF RECON,ioos:station:SCCF:53:1,2009-02-04T22:00:00Z,26.6493,-81.8810,2.069,14.63,1111122 
SCCF RECON,ioos:station:SCCF:53:1,2009-02-04T23:00:00Z,26.6493,-81.8810,2.097,14.72,1111122 
SCCF RECON,ioos:station:SCCF:53:1,2009-02-05T00:00:00Z,26.6493,-81.8810,2.13,14.27,1111122 
SCCF RECON,ioos:station:SCCF:53:1,2009-02-05T01:00:00Z,26.6493,-81.8810,2.152,14.51,1111122 
SCCF RECON,ioos:station:SCCF:53:1,2009-02-05T02:00:00Z,26.6493,-81.8810,2.19,14.48,1111122 
SCCF RECON,ioos:station:SCCF:53:1,2009-02-05T03:00:00Z,26.6493,-81.8810,2.21,14.54,1111122 
SCCF RECON,ioos:station:SCCF:53:1,2009-02-05T04:00:00Z,26.6493,-81.8810,2.19,14.28,1111122 
SCCF RECON,ioos:station:SCCF:53:1,2009-02-05T05:00:00Z,26.6493,-81.8810,2.15,14.03,1111122 
SCCF RECON,ioos:station:SCCF:53:1,2009-02-05T06:00:00Z,26.6493,-81.8810,2.111,12.58,1111122 
SCCF RECON,ioos:station:SCCF:53:1,2009-02-05T07:00:00Z,26.6493,-81.8810,2.06,11.97,1111122 
SCCF RECON,ioos:station:SCCF:53:1,2009-02-05T08:00:00Z,26.6493,-81.8810,2.004,11.73,1111122 
SCCF RECON,ioos:station:SCCF:53:1,2009-02-05T09:00:00Z,26.6493,-81.8810,1.966,11.35,1111122 
SCCF RECON,ioos:station:SCCF:53:1,2009-02-05T10:00:00Z,26.6493,-81.8810,1.93,11.28,1111122 
SCCF RECON,ioos:station:SCCF:53:1,2009-02-05T11:00:00Z,26.6493,-81.8810,1.89,11.06,1111122 
SCCF RECON,ioos:station:SCCF:53:1,2009-02-05T12:00:00Z,26.6493,-81.8810,1.86,10.6,1111122 
SCCF RECON,ioos:station:SCCF:53:1,2009-02-05T13:00:00Z,26.6493,-81.8810,1.829,10.06,1111122 
SCCF RECON,ioos:station:SCCF:53:1,2009-02-05T14:00:00Z,26.6493,-81.8810,1.789,9.58,1111122 
SCCF RECON,ioos:station:SCCF:53:1,2009-02-05T15:00:00Z,26.6493,-81.8810,1.765,9.27,1111122 
SCCF RECON,ioos:station:SCCF:53:1,2009-02-05T16:00:00Z,26.6493,-81.8810,1.758,9.16,1111122 
SCCF RECON,ioos:station:SCCF:53:1,2009-02-05T17:00:00Z,26.6493,-81.8810,1.76,9.39,1111122 
SCCF RECON,ioos:station:SCCF:53:1,2009-02-05T18:00:00Z,26.6493,-81.8810,1.783,9.92,1111122 
SCCF RECON,ioos:station:SCCF:53:1,2009-02-05T19:00:00Z,26.6493,-81.8810,1.796,10.4,1111122 
SCCF RECON,ioos:station:SCCF:53:1,2009-02-05T20:00:00Z,26.6493,-81.8810,1.81,10.98,1111122 
SCCF RECON,ioos:station:SCCF:53:1,2009-02-05T21:00:00Z,26.6493,-81.8810,1.835,11.57,1111122 
SCCF RECON,ioos:station:SCCF:53:1,2009-02-05T22:00:00Z,26.6493,-81.8810,1.86,12.11,1111122 
SCCF RECON,ioos:station:SCCF:53:1,2009-02-05T23:00:00Z,26.6493,-81.8810,1.906,12.9,1111122 
SCCF RECON,ioos:station:SCCF:53:1,2009-02-06T00:00:00Z,26.6493,-81.8810,1.95,12.91,1111122 
SCCF RECON,ioos:station:SCCF:53:1,2009-02-06T01:00:00Z,26.6493,-81.8810,2.0,13.18,1111122 
SCCF RECON,ioos:station:SCCF:53:1,2009-02-06T02:00:00Z,26.6493,-81.8810,2.06,13.4,1111122 
SCCF RECON,ioos:station:SCCF:53:1,2009-02-06T03:00:00Z,26.6493,-81.8810,2.111,13.96,1111122 
SCCF RECON,ioos:station:SCCF:53:1,2009-02-06T04:00:00Z,26.6493,-81.8810,2.15,14.32,1111122 
SCCF RECON,ioos:station:SCCF:53:1,2009-02-06T05:00:00Z,26.6493,-81.8810,2.163,14.62,1111122 
SCCF RECON,ioos:station:SCCF:53:1,2009-02-06T06:00:00Z,26.6493,-81.8810,2.14,13.87,1111122 
SCCF RECON,ioos:station:SCCF:53:1,2009-02-06T07:00:00Z,26.6493,-81.8810,2.09,12.96,1111122 
SCCF RECON,ioos:station:SCCF:53:1,2009-02-06T08:00:00Z,26.6493,-81.8810,2.045,12.89,1111122 
SCCF RECON,ioos:station:SCCF:53:1,2009-02-06T09:00:00Z,26.6493,-81.8810,2.0,11.67,1111122 
SCCF RECON,ioos:station:SCCF:53:1,2009-02-06T10:00:00Z,26.6493,-81.8810,1.95,10.78,1111122 
SCCF RECON,ioos:station:SCCF:53:1,2009-02-06T11:00:00Z,26.6493,-81.8810,1.91,10.64,1111122 
SCCF RECON,ioos:station:SCCF:53:1,2009-02-06T12:00:00Z,26.6493,-81.8810,1.877,9.99,1111122 
SCCF RECON,ioos:station:SCCF:53:1,2009-02-06T13:00:00Z,26.6493,-81.8810,1.84,9.62,1111122 
SCCF RECON,ioos:station:SCCF:53:1,2009-02-06T14:00:00Z,26.6493,-81.8810,1.81,9.34,1111122 
SCCF RECON,ioos:station:SCCF:53:1,2009-02-06T15:00:00Z,26.6493,-81.8810,1.809,9.47,1111122 
SCCF RECON,ioos:station:SCCF:53:1,2009-02-06T16:00:00Z,26.6493,-81.8810,1.824,9.98,1111122 
SCCF RECON,ioos:station:SCCF:53:1,2009-02-06T17:00:00Z,26.6493,-81.8810,1.87,9.99,1111122 
SCCF RECON,ioos:station:SCCF:53:1,2009-02-06T18:00:00Z,26.6493,-81.8810,1.892,10.59,1111122 
SCCF RECON,ioos:station:SCCF:53:1,2009-02-06T19:00:00Z,26.6493,-81.8810,1.92,11.43,1111122 
SCCF RECON,ioos:station:SCCF:53:1,2009-02-06T20:00:00Z,26.6493,-81.8810,1.948,11.7,1111122 
SCCF RECON,ioos:station:SCCF:53:1,2009-02-06T21:00:00Z,26.6493,-81.8810,1.967,12.14,1111122 
SCCF RECON,ioos:station:SCCF:53:1,2009-02-06T22:00:00Z,26.6493,-81.8810,1.981,12.33,1111122 
SCCF RECON,ioos:station:SCCF:53:1,2009-02-06T23:00:00Z,26.6493,-81.8810,2.02,12.73,1111122 
SCCF RECON,ioos:station:SCCF:53:1,2009-02-07T00:00:00Z,26.6493,-81.8810,2.06,13.26,1111122 
SCCF RECON,ioos:station:SCCF:53:1,2009-02-07T01:00:00Z,26.6493,-81.8810,2.11,13.62,1111122 
SCCF RECON,ioos:station:SCCF:53:1,2009-02-07T02:00:00Z,26.6493,-81.8810,2.17,13.93,1111122 
SCCF RECON,ioos:station:SCCF:53:1,2009-02-07T03:00:00Z,26.6493,-81.8810,2.22,14.1,1111122 
SCCF RECON,ioos:station:SCCF:53:1,2009-02-07T04:00:00Z,26.6493,-81.8810,2.27,14.23,1111122 
SCCF RECON,ioos:station:SCCF:53:1,2009-02-07T05:00:00Z,26.6493,-81.8810,2.31,14.52,1111122 
SCCF RECON,ioos:station:SCCF:53:1,2009-02-07T06:00:00Z,26.6493,-81.8810,2.336,14.66,1111122 
SCCF RECON,ioos:station:SCCF:53:1,2009-02-07T07:00:00Z,26.6493,-81.8810,2.3,14.84,1111122 
SCCF RECON,ioos:station:SCCF:53:1,2009-02-07T08:00:00Z,26.6493,-81.8810,2.249,14.34,1111122 
SCCF RECON,ioos:station:SCCF:53:1,2009-02-07T09:00:00Z,26.6493,-81.8810,2.19,14.66,1111122 
SCCF RECON,ioos:station:SCCF:53:1,2009-02-07T10:00:00Z,26.6493,-81.8810,2.14,14.86,1111122 
SCCF RECON,ioos:station:SCCF:53:1,2009-02-07T11:00:00Z,26.6493,-81.8810,2.09,14.99,1111122 
SCCF RECON,ioos:station:SCCF:53:1,2009-02-07T12:00:00Z,26.6493,-81.8810,2.048,15.12,1111122 
SCCF RECON,ioos:station:SCCF:53:1,2009-02-07T13:00:00Z,26.6493,-81.8810,2.0,15.23,1111122 
SCCF RECON,ioos:station:SCCF:53:1,2009-02-07T14:00:00Z,26.6493,-81.8810,1.96,15.21,1111122 
SCCF RECON,ioos:station:SCCF:53:1,2009-02-07T15:00:00Z,26.6493,-81.8810,1.94,15.09,1111122 
SCCF RECON,ioos:station:SCCF:53:1,2009-02-07T16:00:00Z,26.6493,-81.8810,1.94,15.11,1111122 
SCCF RECON,ioos:station:SCCF:53:1,2009-02-07T17:00:00Z,26.6493,-81.8810,1.976,14.16,1111122 
SCCF RECON,ioos:station:SCCF:53:1,2009-02-07T18:00:00Z,26.6493,-81.8810,2.007,13.46,1111122 
SCCF RECON,ioos:station:SCCF:53:1,2009-02-07T19:00:00Z,26.6493,-81.8810,2.034,12.78,1111122 
SCCF RECON,ioos:station:SCCF:53:1,2009-02-07T20:00:00Z,26.6493,-81.8810,2.055,13.25,1111122 
SCCF RECON,ioos:station:SCCF:53:1,2009-02-07T21:00:00Z,26.6493,-81.8810,2.063,13.46,1111122 
SCCF RECON,ioos:station:SCCF:53:1,2009-02-07T22:00:00Z,26.6493,-81.8810,2.05,13.19,1111122 
SCCF RECON,ioos:station:SCCF:53:1,2009-02-07T23:00:00Z,26.6493,-81.8810,2.033,14.4,1111122 
SCCF RECON,ioos:station:SCCF:53:1,2009-02-08T00:00:00Z,26.6493,-81.8810,2.03,14.67,1111122 
SCCF RECON,ioos:station:SCCF:53:1,2009-02-08T01:00:00Z,26.6493,-81.8810,2.059,15.84,1111122 
SCCF RECON,ioos:station:SCCF:53:1,2009-02-08T02:00:00Z,26.6493,-81.8810,2.11,16.39,1111122 
SCCF RECON,ioos:station:SCCF:53:1,2009-02-08T03:00:00Z,26.6493,-81.8810,2.16,16.35,1111122 
SCCF RECON,ioos:station:SCCF:53:1,2009-02-08T04:00:00Z,26.6493,-81.8810,2.22,16.92,1111122 
SCCF RECON,ioos:station:SCCF:53:1,2009-02-08T05:00:00Z,26.6493,-81.8810,2.28,16.63,1111122 
SCCF RECON,ioos:station:SCCF:53:1,2009-02-08T06:00:00Z,26.6493,-81.8810,2.33,16.57,1111122 
SCCF RECON,ioos:station:SCCF:53:1,2009-02-08T07:00:00Z,26.6493,-81.8810,2.35,16.72,1111122 
SCCF RECON,ioos:station:SCCF:53:1,2009-02-08T08:00:00Z,26.6493,-81.8810,2.31,17.2,1111122 
SCCF RECON,ioos:station:SCCF:53:1,2009-02-08T09:00:00Z,26.6493,-81.8810,2.25,17.18,1111122 
SCCF RECON,ioos:station:SCCF:53:1,2009-02-08T10:00:00Z,26.6493,-81.8810,2.2,17.26,1111122 
SCCF RECON,ioos:station:SCCF:53:1,2009-02-08T11:00:00Z,26.6493,-81.8810,2.15,17.47,1111122 
SCCF RECON,ioos:station:SCCF:53:1,2009-02-08T12:00:00Z,26.6493,-81.8810,2.1,17.96,1111122 
SCCF RECON,ioos:station:SCCF:53:1,2009-02-08T13:00:00Z,26.6493,-81.8810,2.05,18.04,1111122 
SCCF RECON,ioos:station:SCCF:53:1,2009-02-08T14:00:00Z,26.6493,-81.8810,2.0,17.92,1111122 
SCCF RECON,ioos:station:SCCF:53:1,2009-02-08T15:00:00Z,26.6493,-81.8810,1.965,17.88,1111122 
SCCF RECON,ioos:station:SCCF:53:1,2009-02-08T16:00:00Z,26.6493,-81.8810,1.94,17.96,1111122 
SCCF RECON,ioos:station:SCCF:53:1,2009-02-08T17:00:00Z,26.6493,-81.8810,1.922,18.03,1111122 
SCCF RECON,ioos:station:SCCF:53:1,2009-02-08T18:00:00Z,26.6493,-81.8810,1.95,17.17,1111122 
SCCF RECON,ioos:station:SCCF:53:1,2009-02-08T19:00:00Z,26.6493,-81.8810,1.981,15.93,1111122 
SCCF RECON,ioos:station:SCCF:53:1,2009-02-08T20:00:00Z,26.6493,-81.8810,2.001,15.37,1111122 
SCCF RECON,ioos:station:SCCF:53:1,2009-02-08T21:00:00Z,26.6493,-81.8810,2.012,16.38,1111122 
SCCF RECON,ioos:station:SCCF:53:1,2009-02-08T22:00:00Z,26.6493,-81.8810,1.99,16.75,1111122 
SCCF RECON,ioos:station:SCCF:53:1,2009-02-08T23:00:00Z,26.6493,-81.8810,1.969,16.13,1111122 
SCCF RECON,ioos:station:SCCF:53:1,2009-02-09T00:00:00Z,26.6493,-81.8810,1.957,16.85,1111122 
SCCF RECON,ioos:station:SCCF:53:1,2009-02-09T01:00:00Z,26.6493,-81.8810,1.94,16.96,1111122 
SCCF RECON,ioos:station:SCCF:53:1,2009-02-09T02:00:00Z,26.6493,-81.8810,1.97,17.16,1111122 
SCCF RECON,ioos:station:SCCF:53:1,2009-02-09T03:00:00Z,26.6493,-81.8810,2.03,17.01,1111122 
SCCF RECON,ioos:station:SCCF:53:1,2009-02-09T04:00:00Z,26.6493,-81.8810,2.08,15.99,1111122 
SCCF RECON,ioos:station:SCCF:53:1,2009-02-09T05:00:00Z,26.6493,-81.8810,2.14,18.24,1111122 
SCCF RECON,ioos:station:SCCF:53:1,2009-02-09T06:00:00Z,26.6493,-81.8810,2.2,19.08,1111122 
SCCF RECON,ioos:station:SCCF:53:1,2009-02-09T07:00:00Z,26.6493,-81.8810,2.26,18.78,1111122 
SCCF RECON,ioos:station:SCCF:53:1,2009-02-09T08:00:00Z,26.6493,-81.8810,2.29,17.01,1111122 
SCCF RECON,ioos:station:SCCF:53:1,2009-02-09T09:00:00Z,26.6493,-81.8810,2.26,17.89,1111122 
SCCF RECON,ioos:station:SCCF:53:1,2009-02-09T10:00:00Z,26.6493,-81.8810,2.21,17.5,1111122 
SCCF RECON,ioos:station:SCCF:53:1,2009-02-09T11:00:00Z,26.6493,-81.8810,2.16,17.46,1111122 
SCCF RECON,ioos:station:SCCF:53:1,2009-02-09T12:00:00Z,26.6493,-81.8810,2.11,17.82,1111122 
SCCF RECON,ioos:station:SCCF:53:1,2009-02-09T13:00:00Z,26.6493,-81.8810,2.06,17.69,1111122 
SCCF RECON,ioos:station:SCCF:53:1,2009-02-09T14:00:00Z,26.6493,-81.8810,2.01,18.04,1111122 
SCCF RECON,ioos:station:SCCF:53:1,2009-02-09T15:00:00Z,26.6493,-81.8810,1.966,18.04,1111122 
SCCF RECON,ioos:station:SCCF:53:1,2009-02-09T16:00:00Z,26.6493,-81.8810,1.936,18.2,1111122 
SCCF RECON,ioos:station:SCCF:53:1,2009-02-09T17:00:00Z,26.6493,-81.8810,1.935,17.72,1111122 
SCCF RECON,ioos:station:SCCF:53:1,2009-02-09T18:00:00Z,26.6493,-81.8810,1.965,17.29,1111122 
SCCF RECON,ioos:station:SCCF:53:1,2009-02-09T19:00:00Z,26.6493,-81.8810,2.01,16.23,1111122 
SCCF RECON,ioos:station:SCCF:53:1,2009-02-09T20:00:00Z,26.6493,-81.8810,2.05,16.37,1111122 
SCCF RECON,ioos:station:SCCF:53:1,2009-02-09T21:00:00Z,26.6493,-81.8810,2.089,16.55,1111122 
SCCF RECON,ioos:station:SCCF:53:1,2009-02-09T22:00:00Z,26.6493,-81.8810,2.096,16.45,1111122 
SCCF RECON,ioos:station:SCCF:53:1,2009-02-09T23:00:00Z,26.6493,-81.8810,2.061,16.69,1111122 
SCCF RECON,ioos:station:SCCF:53:1,2009-02-10T00:00:00Z,26.6493,-81.8810,2.03,16.84,1111122 
SCCF RECON,ioos:station:SCCF:53:1,2009-02-10T01:00:00Z,26.6493,-81.8810,2.0,17.11,1111122 
SCCF RECON,ioos:station:SCCF:53:1,2009-02-10T02:00:00Z,26.6493,-81.8810,1.972,17.07,1111122 
SCCF RECON,ioos:station:SCCF:53:1,2009-02-10T03:00:00Z,26.6493,-81.8810,1.99,16.98,1111122 
SCCF RECON,ioos:station:SCCF:53:1,2009-02-10T04:00:00Z,26.6493,-81.8810,2.05,16.92,1111122 
SCCF RECON,ioos:station:SCCF:53:1,2009-02-10T05:00:00Z,26.6493,-81.8810,2.1,15.62,1111122 
SCCF RECON,ioos:station:SCCF:53:1,2009-02-10T06:00:00Z,26.6493,-81.8810,2.16,16.12,1111122 
SCCF RECON,ioos:station:SCCF:53:1,2009-02-10T07:00:00Z,26.6493,-81.8810,2.22,17.27,1111122 
SCCF RECON,ioos:station:SCCF:53:1,2009-02-10T08:00:00Z,26.6493,-81.8810,2.28,16.6,1111122 
SCCF RECON,ioos:station:SCCF:53:1,2009-02-10T09:00:00Z,26.6493,-81.8810,2.3,16.3,1111122 
SCCF RECON,ioos:station:SCCF:53:1,2009-02-10T10:00:00Z,26.6493,-81.8810,2.26,17.42,1111122 
SCCF RECON,ioos:station:SCCF:53:1,2009-02-10T11:00:00Z,26.6493,-81.8810,2.21,16.74,1111122 
SCCF RECON,ioos:station:SCCF:53:1,2009-02-10T12:00:00Z,26.6493,-81.8810,2.16,16.82,1111122 
SCCF RECON,ioos:station:SCCF:53:1,2009-02-10T13:00:00Z,26.6493,-81.8810,2.11,17.11,1111122 
SCCF RECON,ioos:station:SCCF:53:1,2009-02-10T14:00:00Z,26.6493,-81.8810,2.054,17.13,1111122 
SCCF RECON,ioos:station:SCCF:53:1,2009-02-10T15:00:00Z,26.6493,-81.8810,2.01,17.23,1111122 
SCCF RECON,ioos:station:SCCF:53:1,2009-02-10T16:00:00Z,26.6493,-81.8810,1.97,17.2,1111122 
SCCF RECON,ioos:station:SCCF:53:1,2009-02-10T17:00:00Z,26.6493,-81.8810,1.968,17.43,1111122 
SCCF RECON,ioos:station:SCCF:53:1,2009-02-10T18:00:00Z,26.6493,-81.8810,2.0,16.52,1111122 
SCCF RECON,ioos:station:SCCF:53:1,2009-02-10T19:00:00Z,26.6493,-81.8810,2.041,16.02,1111122 
SCCF RECON,ioos:station:SCCF:53:1,2009-02-10T20:00:00Z,26.6493,-81.8810,2.082,15.92,1111122 
SCCF RECON,ioos:station:SCCF:53:1,2009-02-10T21:00:00Z,26.6493,-81.8810,2.13,16.7,1111122 
SCCF RECON,ioos:station:SCCF:53:1,2009-02-10T22:00:00Z,26.6493,-81.8810,2.156,16.73,1111122 
SCCF RECON,ioos:station:SCCF:53:1,2009-02-10T23:00:00Z,26.6493,-81.8810,2.15,16.78,1111122 
SCCF RECON,ioos:station:SCCF:53:1,2009-02-11T00:00:00Z,26.6493,-81.8810,2.12,15.96,1111122 
SCCF RECON,ioos:station:SCCF:53:1,2009-02-11T01:00:00Z,26.6493,-81.8810,2.08,15.66,1111122 
SCCF RECON,ioos:station:SCCF:53:1,2009-02-11T02:00:00Z,26.6493,-81.8810,2.042,15.56,1111122 
SCCF RECON,ioos:station:SCCF:53:1,2009-02-11T03:00:00Z,26.6493,-81.8810,2.01,16.19,1111122 
SCCF RECON,ioos:station:SCCF:53:1,2009-02-11T04:00:00Z,26.6493,-81.8810,2.01,16.52,1111122 
SCCF RECON,ioos:station:SCCF:53:1,2009-02-11T05:00:00Z,26.6493,-81.8810,2.075,16.49,1111122 
SCCF RECON,ioos:station:SCCF:53:1,2009-02-11T06:00:00Z,26.6493,-81.8810,2.13,15.93,1111122 
SCCF RECON,ioos:station:SCCF:53:1,2009-02-11T07:00:00Z,26.6493,-81.8810,2.194,16.24,1111122 
SCCF RECON,ioos:station:SCCF:53:1,2009-02-11T08:00:00Z,26.6493,-81.8810,2.26,16.1,1111122 
SCCF RECON,ioos:station:SCCF:53:1,2009-02-11T09:00:00Z,26.6493,-81.8810,2.31,16.65,1111122 
SCCF RECON,ioos:station:SCCF:53:1,2009-02-11T10:00:00Z,26.6493,-81.8810,2.34,16.71,1111122 
SCCF RECON,ioos:station:SCCF:53:1,2009-02-11T11:00:00Z,26.6493,-81.8810,2.3,16.49,1111122 
SCCF RECON,ioos:station:SCCF:53:1,2009-02-11T12:00:00Z,26.6493,-81.8810,2.247,16.09,1111122 
SCCF RECON,ioos:station:SCCF:53:1,2009-02-11T13:00:00Z,26.6493,-81.8810,2.2,16.02,1111122 
SCCF RECON,ioos:station:SCCF:53:1,2009-02-11T14:00:00Z,26.6493,-81.8810,2.15,16.28,1111122 
SCCF RECON,ioos:station:SCCF:53:1,2009-02-11T15:00:00Z,26.6493,-81.8810,2.103,16.31,1111122 
SCCF RECON,ioos:station:SCCF:53:1,2009-02-11T16:00:00Z,26.6493,-81.8810,2.062,16.16,1111122 
SCCF RECON,ioos:station:SCCF:53:1,2009-02-11T17:00:00Z,26.6493,-81.8810,2.045,15.52,1111122 
SCCF RECON,ioos:station:SCCF:53:1,2009-02-11T18:00:00Z,26.6493,-81.8810,2.103,16.16,1111122 